This is the latest recevied weather packets stored in our database for station/object K4AXV-13. If no packets are shown the sender has not sent any weather packets the latest 10 day(s).
| Time | Temp. | Humidity | Pressure | Rain* | Wind** | Luminosity | Snow |
|---|---|---|---|---|---|---|---|
| 1778084454 | 31.11° C | - | - | 0 mm | 2.24 m/s, 326° | - | - |
| 1778084150 | 31.11° C | - | - | 0 mm | 0.89 m/s, 249° | - | - |
| 1778083851 | 30.56° C | - | - | 0 mm | 2.68 m/s, 321° | - | - |
| 1778083547 | 30.56° C | - | - | 0 mm | 1.34 m/s, 314° | - | - |
| 1778083248 | 30° C | - | - | 0 mm | 1.34 m/s, 305° | - | - |
| 1778082947 | 30° C | - | - | 0 mm | 2.68 m/s, 342° | - | - |
| 1778082647 | 30° C | - | - | 0 mm | 1.34 m/s, 291° | - | - |
| 1778082345 | 29.44° C | - | - | 0 mm | 1.79 m/s, 305° | - | - |
| 1778081743 | 28.33° C | - | - | 0 mm | 0 m/s | - | - |
| 1778081142 | 27.78° C | - | - | 0 mm | 0.89 m/s, 352° | - | - |
| 1778080843 | 27.22° C | - | - | 0 mm | 1.79 m/s, 4° | - | - |
| 1778080243 | 26.67° C | - | - | 0 mm | 0.89 m/s, 347° | - | - |
| 1778079642 | 26.11° C | - | - | 0 mm | 1.79 m/s, 314° | - | - |
| 1778079448 | 25.56° C | - | - | 0 mm | 1.34 m/s, 319° | - | - |
| 1778079042 | 25.56° C | - | - | 0 mm | 1.34 m/s, 319° | - | - |
| 1778078489 | 25° C | - | - | 0 mm | 1.34 m/s, 335° | - | - |
| 1778078441 | 25° C | - | - | 0 mm | 0 m/s | - | - |
| 1778078143 | 24.44° C | - | - | 0 mm | 1.34 m/s, 326° | - | - |
| 1778078140 | 25° C | - | - | 0 mm | 1.34 m/s, 335° | - | - |
| 1778077841 | 24.44° C | - | - | 0 mm | 1.34 m/s, 326° | - | - |
| 1778077540 | 24.44° C | - | - | 0 mm | 2.24 m/s, 315° | - | - |
| 1778077487 | 24.44° C | - | - | 0 mm | 0 m/s | - | - |
| 1778077241 | 24.44° C | - | - | 0 mm | 0 m/s | - | - |
| 1778077144 | 24.44° C | - | - | 0 mm | 0.89 m/s, 308° | - | - |
| 1778076939 | 24.44° C | - | - | 0 mm | 0.89 m/s, 308° | - | - |
* Rain latest hour (hover to see other rain measurements)
** Current wind speed in m/s (hover to see current wind gust speed)